Location: Trani
(41.2830°N, 16.4170°E)
Time: 03:33:29
(UTC+02:00)

ISS - Pass Details

Date: 16 May 2021
Orbit: 417 x 422 km, 51.6° (Epoch: 14 June)

Event Time Altitude Azimuth Distance (km) Brightness Sun altitude
Rises 21:13:29 0° 231° (SW) 2,350 0.2 -11.3°
Reaches altitude 10° 21:15:34 10° 231° (SW) 1,490 -0.8 -11.6°
Maximum altitude 21:18:55 84° 144° (SE) 425 -3.9 -12.1°
Drops below altitude 10° 21:22:17 10° 55° (NE) 1,502 -1.1 -12.6°
Sets 21:24:24 0° 55° (NE) 2,370 -0.1 -12.9°
